Weather History for Clarksburg, WV

Change the Weather History Date:

Saturday, October 29, 2011

  Actual Average Record
Temperature  
Mean Temperature 36 °F -  
Max Temperature 42 °F 61 °F 80 °F (1971)
Min Temperature 32 °F 35 °F 18 °F (1965)
Degree Days  
Heating Degree Days 28    
Moisture  
Dew Point 33 °F    
Average Humidity 91    
Maximum Humidity 100    
Minimum Humidity 73    
Precipitation  
Precipitation 0.26 in - - ()
Sea Level Pressure  
Sea Level Pressure 30.06 in    
Wind  
Wind Speed 4 mph (NNE)    
Max Wind Speed 8 mph    
Max Gust Speed -    
Visibility 5 miles    
Events Fog , Snow    
Averages and records for this station are not official NWS values.
T = Trace of Precipitation, MM = Missing Value Source: NWS Daily Summary

Daily Weather History Graph

Daily Weather History Graph

Search for Another Location

Airport:

Trip Planner

Search our weather history database for the weather conditions in past years. The results will help you decide how hot, cold, wet, or windy it might be!

Date:

Astronomy

Oct. 29, 2011 Rise Set
Actual Time 7:45 AM EDT 6:23 PM EDT
Civil Twilight 7:17 AM EDT 6:51 PM EDT
Nautical Twilight 6:46 AM EDT 7:22 PM EDT
Astronomical Twilight 6:14 AM EDT 7:53 PM EDT
Moon 11:04 AM EDT (10/29) 8:46 PM EDT (10/29)
Length of Visible Light 11h 33m
Length of Day
10h 38m
Waxing Crescent, 11% of the Moon is Illuminated
Oct 29
Waxing Crescent
Nov 2
First Quarter
Nov 10
Full
Nov 18
Last Quarter
Nov 25
New

Hourly Weather History & Observations

Time (EDT) Temp. Windchill Dew Point Humidity Pressure Visibility Wind Dir Wind Speed Gust Speed Precip Events Conditions
12:53 AM 35.1 °F 31.0 °F 33.1 °F 92% 30.09 in 4.0 mi NE 4.6 mph - 0.03 in Snow Light Snow
1:37 AM 33.8 °F 28.6 °F 33.8 °F 100% 30.07 in 5.0 mi NE 5.8 mph - 0.02 in Snow Light Snow
1:53 AM 33.8 °F 29.6 °F 33.8 °F 100% 30.07 in 4.0 mi NE 4.6 mph - N/A Snow Light Snow
2:07 AM 33.8 °F 29.6 °F 32.0 °F 93% 30.07 in 2.5 mi NE 4.6 mph - 0.01 in Snow Light Snow
2:29 AM 33.8 °F 28.6 °F 32.0 °F 93% 30.06 in 3.0 mi ENE 5.8 mph - 0.02 in Snow Light Snow
2:53 AM 34.0 °F 29.8 °F 32.0 °F 92% 30.07 in 3.0 mi NE 4.6 mph - 0.04 in Snow Light Snow
3:10 AM 33.8 °F 29.6 °F 32.0 °F 93% 30.05 in 4.0 mi ENE 4.6 mph - 0.01 in Snow Light Snow
3:53 AM 34.0 °F 29.8 °F 32.0 °F 92% 30.05 in 6.0 mi ENE 4.6 mph - 0.03 in Snow Light Snow
4:53 AM 35.1 °F 28.6 °F 33.1 °F 92% 30.03 in 9.0 mi East 8.1 mph - 0.01 in   Overcast
5:53 AM 33.8 °F 29.6 °F 32.0 °F 93% 30.02 in 5.0 mi East 4.6 mph - N/A Snow Light Snow
6:04 AM 33.8 °F 29.6 °F 33.8 °F 100% 30.02 in 4.0 mi East 4.6 mph - 0.01 in Snow Light Snow
6:20 AM 33.8 °F - 32.0 °F 93% 30.02 in 3.0 mi Calm Calm - 0.01 in Snow Light Snow
6:27 AM 33.8 °F 29.6 °F 32.0 °F 93% 30.01 in 2.0 mi East 4.6 mph - 0.02 in Snow Light Snow
6:35 AM 33.8 °F 30.8 °F 32.0 °F 93% 30.01 in 1.8 mi East 3.5 mph - 0.02 in Snow Light Snow
6:53 AM 33.1 °F 30.0 °F 32.0 °F 96% 30.02 in 1.8 mi East 3.5 mph - 0.02 in Snow Light Snow
7:53 AM 33.1 °F - 32.0 °F 96% 30.03 in 0.8 mi Calm Calm - 0.00 in Snow Light Snow
8:53 AM 32.0 °F 27.5 °F 30.9 °F 96% 30.05 in 0.2 mi West 4.6 mph - 0.00 in Fog , Snow Light Snow
9:18 AM 33.8 °F 30.8 °F 32.0 °F 93% 30.05 in 1.0 mi West 3.5 mph - 0.00 in Snow Light Snow
9:20 AM 33.8 °F 29.6 °F 32.0 °F 93% 30.05 in 0.8 mi West 4.6 mph - 0.00 in Snow Light Snow
9:53 AM 33.1 °F - 32.0 °F 96% 30.07 in 0.8 mi Calm Calm - 0.01 in Snow Light Snow
10:08 AM 33.8 °F - 32.0 °F 93% 30.05 in 1.2 mi Calm Calm - 0.00 in Snow Light Snow
10:26 AM 33.8 °F - 32.0 °F 93% 30.05 in 2.0 mi Calm Calm - 0.01 in Snow Light Snow
10:34 AM 33.8 °F - 32.0 °F 93% 30.05 in 3.0 mi Calm Calm - 0.01 in Snow Light Snow
10:50 AM 35.6 °F - 33.8 °F 93% 30.05 in 5.0 mi Calm Calm - 0.04 in   Overcast
10:53 AM 35.1 °F - 32.0 °F 89% 30.06 in 6.0 mi Calm Calm - 0.04 in   Overcast
11:03 AM 35.6 °F - 32.0 °F 87% 30.05 in 1.0 mi Calm Calm - 0.02 in   Overcast
11:22 AM 35.6 °F - 33.8 °F 93% 30.05 in 1.0 mi Calm Calm - 0.04 in   Overcast
11:46 AM 35.6 °F 31.7 °F 33.8 °F 93% 30.05 in 2.0 mi West 4.6 mph - 0.08 in   Overcast
11:53 AM 35.1 °F 31.0 °F 33.1 °F 92% 30.06 in 2.0 mi West 4.6 mph - 0.08 in Snow Light Snow
12:04 PM 35.6 °F 31.7 °F 33.8 °F 93% 30.06 in 3.0 mi West 4.6 mph - 0.01 in Snow Light Snow
12:53 PM 35.6 °F 30.7 °F 33.8 °F 93% 30.05 in 10.0 mi West 5.8 mph - N/A   Overcast
1:53 PM 37.9 °F 35.5 °F 34.0 °F 86% 30.05 in 10.0 mi WNW 3.5 mph - N/A   Overcast
2:31 PM 37.4 °F 31.4 °F 33.8 °F 87% 30.05 in 10.0 mi NW 8.1 mph - N/A   Overcast
2:53 PM 37.9 °F 32.7 °F 33.1 °F 83% 30.06 in 10.0 mi West 6.9 mph - N/A   Overcast
3:53 PM 39.0 °F 36.8 °F 34.0 °F 82% 30.07 in 10.0 mi NW 3.5 mph - N/A   Overcast
4:53 PM 41.0 °F 39.0 °F 33.1 °F 73% 30.08 in 10.0 mi North 3.5 mph - N/A   Overcast
5:15 PM 41.0 °F 39.0 °F 33.8 °F 76% 30.07 in 10.0 mi NNE 3.5 mph - N/A   Scattered Clouds
5:53 PM 39.9 °F - 34.0 °F 79% 30.08 in 10.0 mi Calm Calm - N/A   Partly Cloudy
6:53 PM 37.0 °F - 34.0 °F 89% 30.10 in 10.0 mi Calm Calm - N/A   Partly Cloudy
7:53 PM 35.6 °F - 33.8 °F 93% 30.10 in 10.0 mi Calm Calm - N/A   Partly Cloudy
8:53 PM 35.1 °F - 33.1 °F 92% 30.12 in 7.0 mi Calm Calm - N/A   Mostly Cloudy
9:53 PM 34.0 °F - 33.1 °F 96% 30.13 in 6.0 mi Calm Calm - N/A   Overcast
10:53 PM 33.1 °F 30.0 °F 30.9 °F 92% 30.14 in 5.0 mi NE 3.5 mph - 0.00 in   Scattered Clouds
11:53 PM 33.1 °F 30.0 °F 30.9 °F 92% 30.14 in 3.0 mi SSW 3.5 mph - 0.00 in   Mostly Cloudy
11:55 PM 32.0 °F 28.7 °F 30.2 °F 93% 30.12 in 1.5 mi SSW 3.5 mph - N/A   Mostly Cloudy